Theta_e
345 346 343 347 347 351 353 354 354 354 354 354 354 354 354 354 353 353 352 352 352 352 352 351 351 350 350 349 348 350 350 349 344
339 344 347 347 347 348 353 354 354 355 355 355 355 354 354 355 354 353 353 353 352 352 352 353 352 351 350 348 348 349 349 348 345
334 334 334 338 347 347 349 353 354 354 355 355 355 354 354 355 354 353 353 353 353 353 353 353 351 350 349 348 348 348 350 347 345
333 333 333 332 345 348 348 351 354 355 356 355 355 356 356 355 354 354 354 354 353 354 355 354 353 352 350 349 348 349 350 349 345
332 331 331 332 344 347 349 351 352 355 356 357 356 356 356 355 355 355 355 355 354 355 356 355 353 351 351 349 348 351 350 350 348
331 330 333 340 344 344 349 351 351 351 355 355 355 356 357 356 356 356 356 356 355 355 356 355 354 353 351 351 351 351 349 347 349
333 331 331 340 343 345 348 351 352 352 354 355 355 355 356 357 357 357 357 357 357 357 356 356 355 354 353 352 352 351 350 349 350
336 342 338 336 340 342 346 350 351 351 353 356 357 357 358 358 358 358 358 358 357 358 358 357 355 354 354 352 352 352 350 350 350
353 355 352 351 347 339 340 348 350 351 353 356 358 358 358 358 359 359 359 359 358 359 359 356 355 355 354 353 352 352 351 350 350
352 352 351 351 351 350 352 349 346 352 353 357 358 358 359 359 359 359 360 359 359 360 359 358 355 355 353 352 351 350 351 350 349
348 347 346 348 351 354 356 358 357 347 352 354 357 358 357 359 360 359 360 360 360 360 358 358 357 354 352 351 352 349 349 350 349
342 341 339 341 347 350 351 356 358 357 352 353 355 356 356 356 358 359 359 359 360 359 358 358 356 354 352 351 351 349 348 348 348
333 335 337 337 338 338 339 349 356 359 358 357 355 355 356 356 356 358 359 359 359 357 357 356 355 354 352 350 350 348 348 348 348
330 329 332 335 334 335 341 341 341 347 352 355 360 360 361 360 359 358 359 358 358 357 356 354 353 353 352 350 349 348 348 347 346
326 326 327 330 329 329 329 338 339 342 342 344 356 363 362 362 362 360 360 358 357 356 354 353 353 352 350 349 348 348 348 347 347
323 324 325 326 325 325 326 326 333 342 339 332 328 344 361 362 361 359 359 357 356 354 353 353 352 350 349 349 348 349 348 348 347
321 322 323 324 323 323 325 325 325 329 331 339 334 337 351 358 360 357 357 353 346 347 348 350 351 349 349 350 349 349 348 348 346
321 322 322 322 323 322 323 324 325 327 326 330 339 337 339 344 347 343 340 334 335 337 336 340 342 349 350 349 348 348 347 347 347
321 321 320 320 321 321 323 323 324 326 326 326 329 339 339 340 338 341 337 336 333 342 341 335 336 342 349 350 350 349 348 346 346
319 318 318 319 319 320 323 323 324 324 325 325 327 327 338 342 345 343 337 336 335 333 335 336 333 337 348 349 349 349 348 347 347
Wind_Speed
5 5 5 10 13 19 22 26 28 29 32 33 36 36 35 33 32 30 29 25 23 22 20 20 20 21 20 17 16 15 16 15 15
4 3 5 9 11 18 22 27 30 34 33 33 36 38 36 34 34 32 31 28 24 22 21 19 19 21 21 19 19 18 17 19 17
8 4 7 8 10 19 23 27 30 29 34 39 39 37 37 36 35 34 31 28 27 25 22 19 17 17 19 18 18 18 18 19 18
9 9 7 8 8 20 21 23 30 29 30 32 32 35 36 35 36 34 33 31 27 26 23 20 18 17 17 19 19 20 20 20 20
8 9 10 7 7 17 20 23 27 29 27 31 36 35 35 36 35 33 33 32 31 27 27 24 21 19 19 18 21 18 20 22 22
8 7 8 2 6 8 19 24 25 26 31 36 34 34 35 33 34 34 33 32 31 30 29 27 24 22 23 21 21 21 19 19 20
11 14 8 0 1 6 16 19 23 27 30 32 31 32 33 33 35 37 35 33 31 31 32 31 29 26 25 25 23 22 22 21 20
12 11 14 6 2 4 10 14 21 24 25 27 28 30 31 37 38 35 35 33 32 33 34 33 32 27 26 26 25 24 23 24 22
9 10 11 9 8 9 10 16 19 23 28 30 30 30 36 33 31 32 35 35 34 33 34 31 27 30 30 28 27 26 26 25 25
8 9 10 13 12 11 19 21 18 28 33 26 30 33 31 29 32 32 35 36 35 35 34 27 26 31 34 29 29 27 25 25 25
10 11 13 13 15 22 27 29 26 19 22 23 28 29 26 29 31 31 34 34 34 35 31 29 28 25 25 27 30 27 25 24 26
8 8 12 15 17 19 26 31 32 17 13 18 21 26 28 29 31 30 32 34 35 33 29 28 28 26 24 25 24 25 25 25 27
6 13 17 20 23 29 34 34 34 29 19 13 18 24 29 31 31 31 33 35 34 30 26 25 21 19 17 20 21 21 23 25 27
16 20 21 29 30 24 24 34 34 29 28 27 22 21 21 21 24 27 30 30 27 26 22 19 20 19 19 21 20 20 21 24 28
16 21 27 26 23 27 36 35 34 28 28 31 29 19 18 17 17 19 22 24 24 21 21 20 20 18 17 18 16 16 19 24 28
17 23 25 27 24 27 34 35 33 25 29 34 36 30 18 18 18 16 18 19 19 20 20 21 20 19 17 17 16 16 19 23 27
16 19 19 21 23 21 27 31 29 27 28 27 29 29 23 15 13 12 7 5 17 12 11 13 14 13 16 17 17 19 20 22 25
15 16 18 19 19 20 23 30 27 24 25 27 24 22 19 17 15 21 28 31 26 25 30 26 22 22 21 22 21 24 21 23 25
13 16 22 21 21 22 26 27 26 24 22 23 22 20 18 12 4 8 23 19 13 14 21 14 25 26 27 27 29 25 22 22 22
22 20 21 21 21 22 23 21 24 24 23 21 18 19 17 13 6 9 19 19 17 14 18 32 34 29 25 30 31 28 25 22 20
Wind_Direction
18 13 166 197 193 185 187 186 189 190 199 205 213 215 219 224 225 229 233 235 235 235 237 241 249 246 243 245 236 235 235 240 235
352 357 183 195 198 191 186 189 193 194 200 204 212 216 218 224 228 228 231 234 236 240 244 246 253 250 247 247 238 238 239 242 241
311 236 264 246 197 193 192 193 194 197 204 207 212 216 220 223 227 229 232 234 236 237 241 246 250 249 246 245 239 240 238 241 244
298 310 312 264 181 194 188 187 193 197 202 204 211 215 217 220 228 229 230 234 233 235 238 240 244 248 248 243 240 243 242 242 244
287 318 310 275 176 175 178 183 193 199 201 206 215 218 218 223 226 229 229 232 235 235 237 240 240 240 243 243 239 247 243 240 242
317 311 311 258 143 171 182 190 194 195 203 211 213 214 219 220 224 229 232 232 235 237 236 236 237 238 237 240 242 245 244 238 245
358 341 321 255 189 207 199 198 199 202 211 211 208 208 213 217 225 230 233 235 236 236 236 235 235 238 240 241 244 243 239 239 240
21 5 12 6 37 292 292 227 210 212 217 214 208 209 212 221 227 228 233 235 238 238 238 238 236 234 238 241 244 244 238 235 238
24 12 6 2 21 3 313 252 239 229 221 218 209 209 217 222 222 223 231 236 238 241 242 239 239 236 235 236 240 242 244 239 238
30 20 2 6 2 347 344 337 284 238 232 218 211 216 220 219 224 222 229 237 237 240 243 242 240 238 235 238 239 244 240 237 236
21 12 10 8 2 1 2 351 348 287 237 221 216 220 223 224 223 223 230 234 236 243 243 242 245 249 250 251 236 240 242 233 231
14 7 13 3 7 13 16 10 7 350 262 228 225 229 232 234 231 224 229 230 234 242 241 238 245 249 252 238 239 241 239 228 224
4 23 24 17 20 28 22 11 16 22 1 301 245 246 250 250 245 233 234 241 237 235 238 244 249 249 245 254 250 247 234 218 221
17 17 10 17 19 22 18 23 21 24 17 3 334 327 301 275 261 248 246 244 240 242 239 228 237 241 248 252 249 244 229 220 221
21 16 18 16 16 15 23 24 18 16 13 2 1 333 320 302 292 267 256 251 245 236 216 220 227 230 238 243 241 248 240 227 225
20 12 11 8 11 16 18 21 21 12 8 14 12 9 344 313 298 285 268 249 237 223 221 219 226 230 226 230 229 233 239 239 230
6 9 3 357 2 5 3 9 14 16 10 7 13 15 7 346 313 300 294 313 33 14 328 254 241 246 245 245 243 235 230 230 233
357 348 347 357 358 352 353 358 360 4 9 10 5 7 11 37 82 96 101 95 84 42 21 21 346 284 261 251 241 242 240 232 224
331 340 346 347 348 343 341 346 349 354 357 3 4 348 351 358 342 147 145 143 121 202 242 281 284 279 260 262 262 256 245 245 241
343 339 335 333 332 327 332 332 335 336 346 343 345 350 333 328 299 197 192 201 204 199 211 233 241 245 249 245 249 243 243 236 236